Regional Weather Roundup
Issued by NWS

Home | Current Version | Previous Version | Graphics & Text | Print | Product List | Glossary On
Versions: 1 2 3 4 5 6 7 8 9 10 11 12 13 14 15 16 17 18 19 20 21 22 23 24 25 26 27 28 29 30 31 32 33 34 35 36 37 38 39 40 41 42 43 44 45 46 47 48 49 50
000
ASUS45 KBOU 042207
RWRCO

WEATHER ROUNDUP FOR COLORADO
NATIONAL WEATHER SERVICE DENVER/BOULDER CO
400 PM MDT MON MAY 04 2015

NOTE: "FAIR" INDICATES FEW OR NO CLOUDS BELOW 12000 FEET WITH NO
SIGNIFICANT WEATHER AND/OR OBSTRUCTIONS TO VISIBILITY.

COZ001>005-013-030-031-042300-
...NORTHWEST COLORADO...

CITY           SKY/WX    TMP DP  RH WIND       PRES   REMARKS
CRAIG          CLOUDY    59  37  44 S13       30.00F
HAYDEN         NOT AVBL
MEEKER         CLOUDY    60  40  47 E5        30.00F
MOUNT WERNER   NOT AVBL
STEAMBOAT SPGS CLOUDY    61  33  35 W7        30.02F
WALDEN         CLOUDY    54  37  54 N5        30.11S
$$

COZ006>008-011-042300-
...WEST CENTRAL VALLEYS...

CITY           SKY/WX    TMP DP  RH WIND       PRES   REMARKS
GRAND JUNCTION PTSUNNY   65  40  39 SW22G30   29.92R
MONTROSE       CLOUDY    66  36  32 W9        29.97F
EAGLE          MOSUNNY   64  36  34 CALM      30.00F
RIFLE          CLOUDY    64  39  39 CALM      29.95F
DELTA          CLOUDY    70  39  32 W13       29.94F
NUCLA          CLOUDY    55  45  67 NW7       30.03F
$$

COZ017>023-064>068-042300-
...SOUTHWEST COLORADO...

CITY           SKY/WX    TMP DP  RH WIND       PRES   REMARKS
DURANGO        CLOUDY    63  35  35 W13       29.98F
CORTEZ         CLOUDY    62  40  44 SE22G37   29.97R
PAGOSA SPRINGS CLOUDY    62  28  27 SW9       30.03F
TELLURIDE      PTSUNNY   55  33  43 W7        30.10F
WOLF CREEK PAS NOT AVBL
$$

COZ009-010-012-014-032>034-037-058>063-042300-
...CENTRAL COLORADO...

CITY           SKY/WX    TMP DP  RH WIND       PRES   REMARKS
ASPEN          RAIN      50  41  71 E9G25     30.06R
BUENA VISTA    NOT AVBL
COPPER MTN     NOT AVBL
BERTHOUD PASS  TSTM      30  23  74 E28G35    30.29F VSB<1/4 WCI  16
COTTONWOOD PAS PTSUNNY   54  34  47 CALM      30.17F
GUNNISON       CLOUDY    54  30  40 N10       30.08F
KREMMLING      CLOUDY    54  37  54 NW6       30.05F THUNDER
LEADVILLE      LGT RAIN  44  30  57 VRB6      30.16F
MONARCH PASS   CLOUDY    37  32  81 NE15      30.35F
SALIDA         CLOUDY    61  44  52 E13G18    30.13F
SUNLIGHT       CLOUDY    45  32  61 CALM      30.23F
WILKERSON PASS CLOUDY    36  32  87 E3        30.28F THUNDER
$$

COZ069>075-042300-
...SAN LUIS VALLEY/SANGRE DE CRISTO MOUNTAINS...

CITY           SKY/WX    TMP DP  RH WIND       PRES   REMARKS
ALAMOSA        CLOUDY    57  37  47 E17       30.04F
LA VETA PASS   CLOUDY    43  39  87 MISG      30.19F FOG
SAGUACHE       PTSUNNY   64  30  27 SE12      30.03F
$$

COZ035-036-038>040-042300-
...NORTHERN COLORADO FRONT RANGE...

CITY           SKY/WX    TMP DP  RH WIND       PRES   REMARKS
DENVER INTL AP PTSUNNY   58  48  69 E14       30.06F
DMNS CITY PARK   N/A     57  49  76 NE9       30.06S
AURORA         PTSUNNY   59  49  69 E16       30.06F
FRONT RANGE AP PTSUNNY   61  50  67 E13G20    30.07F
ERIE MUNI ARPT CLOUDY    57  49  73 NE5       30.06F THUNDER
BOULDER MUN AP CLOUDY    55  48  76 NW5       30.07S THUNDER
CENTENNIAL     PTSUNNY   60  47  61 E7        30.06F
BROOMFIELD     CLOUDY    57  48  72 N7        30.08F
FORT COLLINS   PTSUNNY   57  46  67 SE7       30.09S
LONGMONT       CLOUDY    59  50  71 NE6       30.09S
$$

COZ041-046-047-076>085-087-088-042300-
...PIKES PEAK/PALMER DIVIDE AND SOUTHERN FOOTHILLS...

CITY           SKY/WX    TMP DP  RH WIND       PRES   REMARKS
COLO. SPRINGS  CLOUDY    60  45  57 S15       30.06F
A. F. ACADEMY  CLOUDY    57  45  62 S14       30.06F
ELLICOTT       CLOUDY   N/A N/A N/A SE17G23   30.05F
FALCON         CLOUDY    58  43  58 SE13      30.10F
FORT CARSON    CLOUDY    60  46  61 S10       30.05F
LIMON          PTSUNNY   59  46  62 E16       30.06F
MONUMENT HILL  TSTM      48  46  93 NE8       30.09F
TRINIDAD       LGT RAIN  55  50  83 NE12      30.05S
$$

COZ042>045-048>051-090-091-042300-
...NORTHEAST COLORADO...

CITY           SKY/WX    TMP DP  RH WIND       PRES   REMARKS
GREELEY ARPT   CLOUDY    59  45  58 SE10      30.09S
AKRON          MOSUNNY   58  46  64 E14       30.08F
BURLINGTON     CLOUDY    63  48  58 NE10      30.05F
WRAY           CLOUDY    55  48  76 NE13      30.10F
STERLING       PTSUNNY   59  45  58 SE12G18   30.09S
HOLYOKE        NOT AVBL
FORT MORGAN    MOSUNNY   62 -13   4 E12G18    30.07F
$$

COZ086-089-092>099-042300-
...SOUTHEAST COLORADO...

CITY           SKY/WX    TMP DP  RH WIND       PRES   REMARKS
PUEBLO         CLOUDY    66  47  50 SE16      29.99F
LA JUNTA       CLOUDY    70  48  45 NE10      29.99F
LAMAR          RAIN      63  55  75 E10       29.96F
SPRINGFIELD      N/A     57  47  69 SW14G31   29.99R
$$


USA.gov is the U.S. government's official web portal to all federal, state and local government web resources and services.